Lapse_Rate
6.6 8.6 9.9 8.9 6.5 6.5 6.5 6.5 6.5 6.5 6.5 7.3 7.6 7.0 6.6 7.1 6.5 6.5 9.0 9.1 9.4 9.2 7.9 7.2 6.0 5.7 5.4 5.2 5.2 5.3 5.5 5.8 5.9 6.0 6.1 5.5 5.8 5.9 5.7 5.9 6.0 6.4 7.1 7.3 6.9 7.1 6.9 6.3 6.1
9.7 9.8 9.2 7.8 6.5 6.5 6.5 6.5 6.5 6.5 7.0 7.6 7.6 7.4 6.9 6.5 8.2 8.4 8.7 9.0 8.7 9.2 8.2 9.1 5.9 5.6 5.4 5.2 5.1 5.1 5.4 5.6 5.7 6.0 6.3 5.8 5.8 5.9 6.0 6.2 6.9 6.7 6.7 6.8 7.4 7.5 6.1 5.7 5.5
9.5 9.6 7.6 6.5 6.5 6.5 6.5 6.5 6.5 6.9 7.5 7.3 7.1 7.8 7.4 7.1 8.4 8.7 9.5 7.0 7.8 9.0 8.8 8.6 5.9 5.7 5.9 5.7 5.6 5.4 5.5 5.6 5.6 5.9 6.7 5.7 6.2 6.3 6.2 6.6 7.4 7.2 7.2 6.6 7.1 6.5 5.4 5.3 5.4
9.2 8.7 7.9 6.5 6.5 6.5 6.5 6.5 6.7 6.7 7.4 7.7 7.5 6.5 8.0 8.8 8.6 9.3 8.4 6.0 8.9 9.4 9.2 6.4 6.0 5.9 6.0 5.9 5.8 5.7 5.7 5.8 5.9 6.0 6.2 6.4 6.7 6.8 6.6 6.6 6.5 6.9 6.4 5.9 5.7 5.1 5.1 5.0 5.2
9.1 7.9 6.5 6.5 6.5 6.5 6.5 6.9 7.1 6.5 6.9 7.2 7.5 6.7 7.2 8.6 9.0 7.5 8.0 6.0 7.4 8.4 9.1 7.9 5.6 5.8 5.8 5.9 5.9 5.8 5.9 6.0 6.1 6.2 6.2 6.6 6.5 6.6 6.5 6.4 5.9 6.1 6.0 5.7 5.1 4.8 5.0 5.1 5.2
7.3 7.4 6.5 6.5 6.5 6.5 6.6 7.2 7.1 6.8 7.1 7.3 7.1 7.0 7.4 8.2 7.7 6.6 7.9 7.5 6.6 5.5 8.7 8.0 5.8 5.4 5.5 5.8 5.9 6.0 5.9 6.1 6.2 6.3 6.2 6.2 6.4 6.5 6.3 6.3 6.0 5.8 5.9 5.4 5.0 5.0 5.0 5.0 5.5
6.8 6.5 6.5 6.5 6.5 6.5 6.5 7.5 6.8 6.8 6.9 6.9 7.8 6.5 7.7 8.5 7.1 6.6 7.8 8.5 7.2 5.4 6.9 7.9 8.6 6.7 5.4 5.5 5.6 5.9 6.0 5.8 5.8 5.9 6.0 6.1 6.2 6.2 6.3 6.2 6.1 6.0 5.5 5.3 4.8 4.9 5.0 5.0 5.2
7.5 6.5 6.5 6.5 6.5 6.5 6.7 7.2 7.5 7.2 6.8 8.3 8.3 6.6 6.8 8.4 7.6 7.1 7.9 8.1 8.6 7.7 6.3 7.2 7.7 9.0 9.3 8.3 5.4 5.4 5.4 5.5 5.7 5.5 5.4 5.6 6.0 5.9 5.9 6.2 6.0 6.0 5.5 4.9 4.9 4.9 4.9 4.8 4.9
8.1 6.5 6.5 6.5 6.5 6.5 7.1 6.6 7.7 8.1 7.6 7.8 8.1 8.0 8.4 9.0 8.9 8.1 7.4 8.2 8.5 8.6 7.8 6.6 6.7 7.5 8.3 9.4 8.5 5.5 4.9 5.0 5.5 5.6 5.5 5.5 7.2 7.8 7.2 6.8 6.0 5.9 5.6 4.9 4.9 4.9 4.9 4.6 4.3
6.8 6.5 6.5 6.6 6.6 6.5 6.9 6.9 7.2 7.1 7.1 7.3 7.7 8.5 8.8 9.0 8.8 8.5 8.2 6.7 7.2 8.2 8.3 7.7 8.3 6.6 7.3 7.7 9.5 8.8 8.6 7.2 7.3 7.2 7.6 6.8 9.4 9.4 8.8 7.8 5.9 5.7 5.6 4.9 4.7 4.8 4.7 4.4 7.5
6.9 6.5 6.5 6.7 7.1 7.3 6.9 6.9 7.6 6.9 6.5 7.3 7.2 7.9 8.4 8.5 8.6 8.5 8.5 8.4 7.0 6.7 7.0 7.5 7.5 8.1 6.4 7.5 8.5 9.3 9.3 8.8 9.3 9.6 9.6 9.5 9.6 8.1 8.5 7.4 6.2 6.6 5.3 6.0 4.7 5.0 5.7 6.7 8.6
6.5 6.8 6.9 7.0 7.3 7.1 6.7 7.4 6.9 7.2 7.3 8.0 8.2 8.4 8.4 8.3 8.4 8.5 8.5 8.6 8.1 7.0 6.2 6.8 7.4 7.6 7.7 6.2 8.4 9.3 7.8 8.2 9.2 9.5 9.6 9.6 9.4 9.2 7.9 7.4 7.2 7.7 7.6 8.4 8.1 7.8 7.4 8.6 9.6
6.5 6.6 7.1 7.3 7.4 7.3 7.5 7.0 6.8 7.2 8.0 8.4 8.4 8.3 8.3 8.3 8.5 8.7 8.9 9.0 8.9 7.4 5.8 5.7 6.7 7.1 8.0 8.5 9.4 9.8 9.4 9.4 9.5 9.4 9.6 9.1 8.4 8.1 8.3 7.7 6.8 7.3 8.1 9.1 9.6 9.7 9.8 9.7 9.7
7.0 6.9 6.9 7.2 7.2 7.3 6.7 6.8 7.1 7.3 8.0 7.9 8.0 8.1 8.3 8.3 8.5 8.6 8.7 8.7 8.9 9.0 8.4 6.6 6.2 6.9 7.6 8.4 8.9 9.6 9.7 9.8 9.1 8.3 9.2 9.1 9.4 7.7 8.0 7.9 8.2 7.9 7.1 8.8 9.1 9.8 9.7 9.7 9.7
7.1 6.5 6.5 6.7 6.9 6.6 7.3 6.5 6.5 7.6 7.9 7.6 7.8 8.0 8.1 8.3 8.5 8.5 8.7 8.8 9.0 9.1 9.3 9.2 7.6 6.6 7.3 7.9 9.1 9.3 9.7 9.7 9.5 9.1 8.2 9.1 9.0 8.4 7.4 7.4 7.0 7.3 7.1 8.7 8.4 8.0 9.4 9.8 9.8
6.5 6.5 6.5 6.5 6.7 6.9 6.8 6.5 6.5 7.6 7.5 7.4 7.6 7.9 8.0 8.3 8.5 8.7 8.9 9.0 9.2 9.2 9.1 9.1 9.4 8.6 7.3 7.5 8.4 9.4 8.8 9.8 9.7 9.1 9.1 9.1 9.2 8.2 8.7 7.8 8.2 8.4 8.0 7.6 7.5 8.6 8.5 7.3 8.2
6.5 6.5 6.5 6.5 6.8 6.5 6.5 6.5 6.6 7.6 7.5 7.3 7.6 7.8 7.9 8.0 8.4 8.7 9.0 9.1 9.2 9.3 9.3 9.2 9.1 8.6 8.0 7.6 8.3 8.2 6.5 8.1 9.8 9.6 9.3 8.7 9.3 9.2 8.9 9.3 9.3 8.7 7.9 8.3 8.2 8.1 8.7 8.9 8.0
6.5 6.5 6.5 6.5 6.5 6.5 6.5 6.5 6.5 7.3 7.3 7.2 7.5 7.7 7.8 7.8 8.1 8.6 8.9 9.1 9.3 9.3 9.4 9.4 9.5 9.5 9.4 9.5 9.1 8.6 6.6 5.4 8.3 9.3 9.7 8.9 8.2 9.5 9.2 9.2 9.4 9.4 8.9 8.0 7.8 8.0 7.8 8.6 8.7
6.5 6.5 6.5 6.5 6.5 6.5 6.5 6.5 6.5 6.9 7.0 7.0 7.2 7.5 7.7 7.8 8.4 8.7 8.9 9.1 9.1 9.1 9.2 9.3 9.2 9.3 9.6 9.5 9.3 9.2 6.1 5.6 5.4 8.6 9.6 9.6 9.5 8.1 8.5 9.0 8.4 9.2 8.1 7.9 7.9 7.4 7.3 6.9 7.9
6.5 6.5 6.5 6.5 6.5 6.5 6.5 6.5 6.5 6.5 6.7 7.0 7.2 7.4 7.6 7.8 8.1 8.4 8.6 8.9 8.9 8.9 9.1 9.1 9.2 9.3 9.4 9.5 9.3 9.2 8.4 7.2 7.0 8.0 8.2 8.9 9.3 8.7 8.7 8.2 7.9 8.5 7.7 7.2 6.8 7.0 6.9 7.1 7.3
6.5 6.5 6.5 6.5 6.5 6.5 6.5 6.5 6.5 6.5 6.9 7.2 7.6 7.8 7.9 7.8 7.9 8.2 8.4 8.6 8.8 8.8 8.9 9.0 9.0 9.3 9.4 9.4 9.4 9.2 9.3 9.0 8.1 7.6 7.9 8.4 7.7 7.2 7.7 7.6 7.5 6.5 6.0 7.3 7.3 6.8 6.0 5.8 5.1
6.5 6.5 6.5 6.5 6.5 6.5 6.5 6.5 6.5 6.5 6.5 6.5 7.2 7.5 7.6 7.7 7.7 8.2 8.3 8.5 8.6 8.9 9.0 9.1 9.2 9.3 9.3 8.9 9.2 9.2 9.1 8.4 8.1 8.2 8.8 9.0 9.0 8.2 7.3 6.7 7.2 6.0 5.7 7.1 6.8 6.6 7.1 6.3 6.6
6.5 6.5 6.5 6.5 6.5 6.5 6.5 6.5 6.5 6.5 6.5 6.5 6.8 7.3 7.5 7.9 8.0 7.6 8.2 8.6 8.8 8.5 9.0 9.2 9.2 8.3 8.6 9.2 9.2 9.0 9.0 8.6 8.7 8.1 8.6 8.6 8.1 6.9 7.3 7.0 6.5 5.8 6.4 6.7 6.4 5.3 5.6 5.8 5.9
6.5 6.5 6.5 6.5 6.5 6.5 6.5 6.5 6.5 6.5 6.5 6.5 6.8 7.2 7.5 7.7 8.1 8.2 8.5 8.7 8.5 8.6 8.8 9.1 9.0 7.4 8.0 9.2 9.3 9.0 9.0 8.9 8.3 8.1 7.0 7.4 7.4 7.2 6.1 6.5 6.1 6.3 6.1 5.7 5.5 5.7 5.4 5.9 5.6
6.5 6.5 6.5 6.5 6.5 6.5 6.5 6.5 6.5 6.5 6.5 6.5 6.6 7.0 7.4 7.5 7.6 7.5 7.6 7.2 6.9 8.2 8.2 8.9 8.9 8.7 8.8 9.2 9.1 9.0 9.0 9.1 8.7 7.6 8.5 8.1 7.6 4.5 3.9 5.6 6.2 7.0 6.9 6.6 6.0 5.5 5.1 5.2 5.0
6.5 6.5 6.5 6.5 6.5 6.5 6.5 6.5 6.5 6.5 6.9 7.0 7.2 7.3 7.4 7.6 7.1 7.1 6.7 6.3 6.0 6.2 7.1 8.1 8.8 8.8 8.9 9.2 9.0 9.2 9.0 8.6 8.2 6.6 8.1 7.6 6.1 4.4 4.8 6.1 6.5 6.3 6.0 5.6 5.5 4.9 5.3 5.3 5.2
6.5 6.5 6.5 6.5 6.5 6.5 6.5 6.5 6.5 6.5 6.5 6.8 6.9 7.1 7.1 7.4 6.8 7.1 6.5 6.3 6.1 4.7 4.3 4.7 6.5 6.7 6.8 9.1 8.9 8.3 8.6 7.8 7.4 5.7 6.5 6.7 7.2 6.4 6.0 6.9 6.8 6.4 5.5 5.8 4.7 4.7 4.4 4.3 4.5
6.5 6.5 6.5 6.5 6.5 6.5 6.5 6.5 6.5 6.5 6.5 6.5 6.6 6.9 7.3 7.7 7.1 7.1 6.8 6.4 5.6 4.9 4.7 4.3 4.7 4.2 3.2 3.6 5.4 5.1 4.0 3.9 6.0 6.1 6.2 5.5 3.4 4.8 4.5 3.6 4.6 5.6 4.9 4.7 4.7 4.6 4.8 4.8 4.9
6.5 6.5 6.5 6.5 6.5 6.5 6.5 6.5 6.5 6.5 6.5 6.5 6.6 7.1 7.4 7.6 7.7 7.2 6.8 6.6 6.7 5.2 4.1 4.4 3.4 4.0 3.3 2.8 3.1 3.3 2.4 1.4 1.7 2.5 2.3 1.9 2.0 2.0 2.5 2.2 1.8 1.5 1.8 2.2 3.1 3.0 4.0 4.6 4.7
6.5 6.5 6.5 6.5 6.5 6.5 6.5 6.5 6.5 6.5 6.5 6.8 6.9 7.2 7.6 7.8 7.9 8.0 7.7 6.9 6.0 5.2 5.3 5.0 4.2 3.8 3.3 3.0 2.6 2.5 1.2 1.9 1.3 1.5 1.0 1.2 1.4 1.3 0.9 0.9 1.2 1.2 0.8 1.0 1.6 1.7 1.3 1.7 1.9
Wind_Speed
9 9 4 5 5 6 11 4 2 5 3 2 5 4 7 8 5 3 6 9 10 2 12 16 14 14 13 13 14 13 12 11 11 10 10 12 9 9 9 9 8 8 7 8 11 11 11 10 10
6 6 5 4 6 9 8 7 8 6 7 1 2 5 3 7 11 4 3 15 10 2 12 15 16 15 13 13 13 13 13 11 11 10 10 11 10 11 11 9 10 9 8 9 10 10 12 9 8
8 8 4 4 6 10 1 4 8 6 3 3 6 3 3 5 9 6 11 13 8 4 10 9 18 14 14 13 12 13 11 11 11 10 11 11 9 11 11 11 11 8 9 11 9 11 10 7 5
5 4 3 6 9 2 4 4 7 7 5 3 1 5 5 5 4 10 11 11 6 2 6 15 14 12 12 12 12 11 10 10 8 8 9 11 13 12 12 11 9 11 11 12 11 11 7 4 4
4 4 6 6 9 3 4 5 6 5 4 6 3 4 2 4 6 10 9 9 6 6 3 11 12 11 11 11 11 11 12 12 12 9 9 10 10 9 10 11 14 14 12 12 11 9 6 3 5
4 4 6 9 8 5 5 4 4 4 5 5 5 3 2 7 8 10 10 7 8 10 3 8 12 9 10 11 11 11 10 9 9 8 7 9 9 8 8 11 16 15 13 12 11 8 6 4 4
8 6 8 1 5 7 4 2 6 5 6 4 4 5 6 6 7 8 9 9 5 7 8 7 9 12 9 11 12 12 10 9 9 9 7 8 8 7 9 15 17 15 14 12 12 9 6 4 5
2 3 3 5 7 5 3 1 5 5 6 4 1 4 3 9 5 7 7 7 8 4 3 5 8 7 13 13 12 13 14 14 13 12 11 10 9 9 9 15 16 16 13 12 11 9 7 5 4
1 4 6 2 4 6 3 3 2 3 8 4 5 7 4 2 5 7 8 6 6 5 5 2 4 5 9 10 14 13 13 14 14 12 11 10 12 13 12 16 19 15 14 12 11 10 8 6 5
6 4 3 6 4 3 2 2 3 4 6 11 11 10 10 11 9 9 9 10 9 8 6 6 5 7 8 9 10 12 13 13 14 14 15 14 15 11 15 15 18 17 14 12 10 10 9 8 10
4 3 3 3 3 2 2 5 6 5 10 13 11 11 9 10 11 12 12 12 11 11 8 8 7 7 8 8 9 8 9 8 11 16 15 16 15 11 10 11 14 14 14 13 13 12 13 13 12
5 1 2 2 1 3 5 6 7 12 13 9 12 13 14 14 14 14 14 14 11 11 12 10 9 8 9 9 9 12 7 10 10 11 15 10 7 6 8 9 11 15 14 13 14 12 14 14 14
4 2 2 4 6 7 9 13 13 17 16 15 15 14 15 14 15 14 14 14 13 11 11 11 10 9 9 9 9 9 7 8 10 11 14 10 4 4 9 10 11 10 11 12 10 11 10 11 12
2 2 4 4 7 7 10 12 3 8 1 8 9 11 12 13 14 14 14 14 13 13 12 10 11 10 9 9 12 9 9 11 12 12 13 10 10 4 4 6 8 12 13 14 13 9 7 7 9
2 4 4 6 3 3 7 11 12 13 10 10 11 12 12 14 15 16 15 16 15 14 12 10 10 11 11 11 11 10 10 12 8 11 14 13 12 9 7 5 6 9 13 13 11 8 9 8 8
3 2 4 8 4 1 2 9 3 3 7 13 14 16 18 18 17 17 17 16 17 16 16 14 11 10 12 11 9 9 10 10 9 12 13 15 14 12 10 8 8 13 12 9 7 7 8 5 6
5 4 6 3 4 2 7 9 7 9 14 19 19 17 16 16 17 16 16 16 17 16 17 15 13 14 13 12 9 8 8 9 10 12 11 12 13 14 10 8 8 10 5 7 8 8 8 8 8
5 4 5 6 5 8 12 19 19 17 16 18 18 17 15 14 13 13 14 15 17 16 17 16 12 14 14 11 9 7 5 5 10 8 10 15 12 13 9 7 8 10 7 7 8 9 8 8 8
3 3 7 7 3 8 11 15 17 17 17 15 12 13 14 14 14 13 14 15 14 15 17 17 16 15 10 9 9 8 7 6 7 9 12 16 15 15 9 7 8 7 7 8 10 9 10 8 9
2 4 6 6 0 9 13 20 20 5 2 5 10 14 15 16 14 14 15 15 14 14 15 16 16 14 12 8 7 8 8 8 10 9 9 13 14 14 10 10 8 9 6 7 9 9 8 7 8
3 5 5 6 13 14 12 10 4 4 2 8 15 16 18 18 17 16 16 17 15 14 14 14 14 13 13 12 8 7 8 7 8 10 9 10 14 13 10 9 8 8 7 8 9 9 10 6 4
4 3 4 8 10 4 14 7 8 3 7 9 15 15 16 18 19 18 19 17 17 15 12 13 13 13 12 12 11 13 9 9 8 8 9 8 11 10 11 10 10 9 7 9 8 8 10 10 10
3 5 9 10 9 8 1 4 6 3 9 15 16 17 18 16 16 16 20 19 18 18 12 11 13 13 12 12 12 10 12 7 8 8 10 8 7 10 9 9 9 9 7 7 8 7 10 8 8
8 8 8 1 1 4 4 6 3 4 11 17 16 15 18 20 18 19 20 18 17 15 13 10 12 12 12 12 13 13 13 12 9 9 6 5 5 6 8 9 8 8 8 9 8 9 9 9 7
3 5 2 2 2 3 2 5 6 6 10 8 12 13 14 16 14 16 19 16 15 13 13 10 10 11 11 13 13 14 14 13 13 12 8 9 7 7 7 9 8 7 8 8 8 8 8 9 8
1 3 2 4 3 6 3 5 1 5 5 6 10 10 12 13 14 14 15 14 11 10 7 10 9 10 10 11 12 12 13 9 8 11 9 7 8 7 7 8 8 9 9 8 9 7 8 9 8
2 1 5 3 7 4 4 3 5 4 4 6 9 9 10 12 13 15 15 13 10 10 12 12 5 6 8 10 9 8 10 10 9 11 10 6 7 6 9 9 10 10 8 9 6 5 5 4 4
2 4 2 3 3 4 4 3 4 3 7 6 10 11 12 14 15 13 12 12 9 10 9 11 11 12 11 10 8 6 5 5 5 4 6 1 5 5 5 6 6 8 4 6 8 6 7 7 6
3 2 3 4 4 3 5 1 6 9 7 7 7 10 11 10 11 11 11 11 10 10 9 10 12 11 10 9 9 8 9 10 9 7 7 7 8 8 7 7 6 7 7 8 6 6 4 3 3
7 7 7 3 1 4 4 5 8 7 4 5 6 8 7 8 7 8 10 10 12 13 11 11 12 11 11 12 11 9 11 11 12 8 9 10 10 8 9 9 8 9 10 9 9 8 8 8 8
Wind_Direction
268 228 221 195 213 239 226 185 41 148 176 100 17 295 353 29 359 34 103 30 357 11 158 167 163 161 161 151 149 153 157 164 162 165 163 146 158 161 161 158 155 146 126 118 117 110 106 100 102
234 200 210 198 249 214 207 138 195 141 81 341 202 224 228 104 41 51 100 355 343 291 155 176 171 166 167 162 160 161 167 166 161 167 168 146 170 170 172 175 172 159 146 129 120 124 94 102 107
253 243 204 206 233 232 170 159 147 110 147 168 191 285 10 38 43 10 358 337 330 272 162 168 164 176 175 172 168 168 175 169 164 173 166 157 183 181 182 184 181 168 140 127 128 106 106 106 108
187 196 247 244 219 132 46 136 120 151 137 135 10 173 104 43 12 357 1 339 326 226 180 136 154 170 181 179 178 173 174 176 172 176 178 177 193 198 188 185 183 166 142 137 114 118 119 128 129
221 226 234 232 228 93 92 114 167 175 128 159 160 117 111 92 37 15 19 353 353 331 205 158 153 175 188 188 187 186 191 189 191 195 193 207 209 197 205 185 163 155 149 139 136 138 137 140 176
182 271 223 225 185 147 127 141 185 206 148 120 218 195 120 109 40 16 16 30 1 354 287 137 156 171 186 201 202 202 199 202 205 210 211 217 224 214 204 180 164 157 158 153 151 152 149 135 143
241 223 241 281 160 166 152 359 232 230 216 210 40 266 98 149 38 7 8 6 43 11 350 291 186 184 192 193 204 208 215 213 209 216 217 223 224 225 228 190 172 164 165 164 162 163 163 158 155
272 272 227 218 185 145 92 202 349 277 246 44 300 242 234 109 17 350 355 2 3 23 354 332 317 207 203 206 207 207 208 213 216 215 211 214 220 217 209 186 175 170 168 171 169 177 177 173 173
298 238 226 190 203 102 117 234 100 331 280 257 246 281 353 333 316 322 331 327 342 352 354 315 289 283 290 245 192 202 222 218 217 216 218 215 220 198 198 195 176 178 176 181 176 186 189 177 174
207 243 263 32 48 117 133 279 355 290 250 254 255 261 267 274 280 297 302 304 305 305 317 315 278 259 258 273 229 209 215 218 218 211 210 212 221 214 189 191 179 183 181 180 183 195 194 200 211
169 261 73 93 29 336 277 253 249 273 265 261 277 288 296 296 291 287 285 283 282 285 283 287 291 274 250 254 247 237 216 228 229 221 218 211 225 158 192 176 182 194 189 196 194 197 211 215 231
192 254 330 25 83 294 286 311 258 245 250 306 289 290 288 281 280 283 283 279 277 278 278 273 270 273 247 234 240 227 192 219 224 225 233 218 218 192 176 196 191 201 186 210 193 206 210 220 221
234 155 267 281 289 282 283 267 269 268 267 268 272 272 270 273 274 274 274 276 271 265 263 265 261 258 263 239 246 239 219 204 220 228 223 232 226 187 197 189 198 210 214 205 208 212 208 215 219
54 231 272 283 287 279 285 287 307 263 272 281 273 270 269 267 270 274 270 270 271 270 263 252 253 251 250 248 243 244 231 220 223 215 229 208 218 231 222 212 200 206 211 207 215 214 220 214 218
142 269 226 236 263 287 324 274 231 266 269 279 277 270 270 274 273 269 269 264 270 278 267 253 251 247 245 243 245 246 244 228 207 224 222 219 216 199 213 229 210 217 215 217 202 233 232 220 217
200 252 258 133 188 126 285 276 205 202 277 278 285 281 284 284 276 273 276 267 263 270 257 255 254 244 242 241 239 242 249 234 227 208 220 215 216 209 215 204 223 209 203 206 212 214 225 232 231
198 229 221 235 191 235 225 288 300 303 288 289 289 288 289 290 288 283 282 280 273 264 256 250 248 245 237 239 236 222 256 252 227 207 211 215 218 208 219 221 231 234 231 221 210 216 219 223 229
180 226 205 253 154 230 263 266 277 281 282 283 289 294 297 300 303 305 295 290 282 269 254 252 248 242 243 236 229 213 222 260 258 227 209 208 218 218 219 230 230 233 229 220 225 223 223 231 222
15 302 284 284 299 300 274 285 289 288 283 283 304 315 307 310 311 297 289 284 275 270 259 252 249 241 236 231 229 217 206 209 235 238 228 217 211 212 230 228 232 237 225 241 233 230 226 226 240
353 305 293 304 6 301 292 295 287 330 2 328 322 321 319 313 315 319 313 296 276 262 255 249 248 239 232 231 233 242 202 217 224 222 224 233 229 223 224 228 233 231 220 227 230 225 227 241 229
225 282 330 308 317 280 328 287 160 141 284 11 350 334 330 329 330 324 317 316 293 270 248 245 240 232 231 233 231 231 240 237 225 225 221 216 228 231 232 231 232 226 233 234 231 224 211 222 204
263 23 305 312 341 309 0 296 293 309 303 354 344 340 337 336 331 322 316 312 306 289 258 245 239 232 224 226 228 226 231 228 235 229 223 219 223 225 225 231 229 227 232 237 231 222 221 221 240
14 321 302 302 307 323 100 245 279 17 318 329 335 331 333 326 319 314 308 307 308 293 269 254 242 240 239 215 229 226 230 225 241 241 241 221 212 231 232 229 227 237 236 238 229 221 218 217 227
313 301 290 57 259 263 220 204 247 320 323 326 329 334 336 332 325 319 310 307 295 280 268 248 243 237 227 218 219 223 231 216 225 237 230 227 236 226 235 231 230 231 227 223 221 225 223 222 228
249 306 312 231 241 277 96 234 301 325 344 322 321 325 327 321 325 324 325 318 296 273 283 232 238 238 228 216 220 216 218 225 223 229 222 227 223 224 231 234 230 228 233 229 223 214 214 208 205
313 325 333 293 299 315 184 249 294 345 358 314 315 310 309 330 338 339 338 332 339 16 335 295 251 255 242 229 223 225 210 221 221 226 232 229 233 235 230 227 225 241 235 232 226 221 218 202 204
44 238 34 327 233 274 225 266 236 349 308 329 329 328 341 346 339 348 348 348 352 29 31 27 354 357 355 239 228 241 243 226 216 227 229 234 224 215 223 232 246 242 232 234 203 199 180 174 177
192 19 226 181 280 283 223 252 264 287 294 312 317 342 350 354 342 352 356 354 4 32 42 43 38 40 34 32 48 65 37 9 284 232 225 26 48 54 72 26 301 254 214 207 201 201 203 203 211
149 226 210 307 274 296 307 204 205 216 253 293 323 338 345 352 348 348 358 3 14 31 40 50 58 48 49 37 44 54 60 48 32 87 77 86 75 63 71 70 42 53 59 43 54 52 62 168 155
249 248 214 250 102 250 288 282 184 200 207 224 280 322 340 347 355 356 6 3 7 14 24 40 53 51 53 55 40 33 60 53 45 45 70 68 70 66 51 60 68 56 52 48 51 54 53 61 60